Lapse_Rate
9.3 9.6 8.2 8.1 7.6 7.1 6.5 6.9 6.4 5.3 5.2 4.8 5.0 4.5 4.4 4.0 3.6 3.8 3.8 3.8 4.4 5.0 3.0 2.4 3.4 4.9 6.2
9.0 9.1 9.2 9.4 7.5 6.4 6.7 6.9 6.9 6.0 4.9 5.1 5.2 5.4 5.1 4.7 4.5 4.0 3.6 2.7 2.6 3.7 5.0 4.1 2.9 2.4 4.6
8.8 9.3 9.3 9.5 9.3 7.8 7.9 7.8 8.2 6.9 6.4 5.7 5.1 4.9 5.0 5.0 4.5 4.3 3.6 3.3 2.9 2.6 4.2 5.1 5.1 2.9 1.8
8.9 8.9 9.2 9.5 9.5 9.1 9.1 9.6 8.6 6.8 8.3 8.5 6.3 5.3 5.2 5.4 5.0 5.1 5.0 5.3 5.6 4.5 4.1 5.2 5.3 5.0 2.5
8.7 8.8 8.8 9.0 8.8 9.2 8.9 9.2 9.0 9.8 9.3 9.6 8.8 7.9 6.7 6.1 6.1 6.0 6.4 7.4 6.2 4.7 4.7 3.2 4.0 4.5 4.2
8.7 8.7 8.8 9.0 9.2 9.0 8.8 8.3 8.2 9.8 9.5 9.2 9.8 9.2 8.5 7.6 6.4 6.0 6.1 7.5 7.1 6.2 6.2 5.0 2.8 3.6 4.4
8.8 8.9 8.9 9.2 9.0 8.5 8.5 8.8 9.0 9.5 9.7 9.0 9.5 9.4 9.7 9.5 6.2 6.4 6.5 6.4 6.5 6.2 5.9 5.7 5.3 3.1 4.1
9.2 9.1 9.3 9.3 8.5 8.5 8.7 9.1 9.5 9.6 9.8 8.8 9.3 9.2 9.7 9.7 7.8 6.9 6.8 6.9 6.6 6.2 5.6 5.3 5.7 5.2 3.7
9.0 9.2 9.1 9.1 9.2 9.3 8.9 9.0 8.5 8.9 9.5 9.2 9.0 9.4 9.6 9.2 9.7 8.8 7.0 6.7 6.6 6.2 5.8 5.3 5.3 5.6 3.5
9.5 9.7 9.7 9.6 9.4 9.5 9.2 8.7 8.7 8.6 9.3 8.7 8.8 9.0 8.3 9.5 9.5 9.8 8.8 7.3 7.0 6.6 6.0 5.5 5.1 5.0 4.9
9.5 9.5 9.6 9.6 9.6 9.6 9.5 9.0 8.6 8.4 9.2 9.2 8.4 8.3 8.5 8.6 9.3 9.7 9.5 8.5 7.9 6.8 6.9 6.1 5.2 5.7 4.6
9.2 9.1 9.1 9.1 9.2 9.4 9.0 8.3 8.2 7.7 7.3 7.3 7.3 7.6 7.5 8.0 8.5 9.2 9.1 8.5 8.3 7.2 6.6 7.2 6.8 5.8 5.6
8.9 8.9 9.1 9.3 8.8 7.6 7.9 8.4 8.5 8.2 7.4 7.6 8.0 7.8 7.7 7.8 8.0 8.3 8.8 7.9 7.9 8.8 8.2 7.5 7.2 5.9 4.3
8.9 9.1 9.1 8.5 8.5 8.8 8.5 8.7 8.5 8.5 8.6 8.2 8.2 8.1 7.7 8.2 8.2 7.9 8.3 8.1 8.5 8.5 8.5 8.4 8.1 7.5 6.1
8.6 8.5 8.6 8.7 8.4 8.6 8.4 8.3 7.8 8.1 8.4 9.0 8.9 8.5 8.0 6.9 7.3 7.8 8.5 8.7 8.4 8.3 8.2 7.9 8.0 7.5 6.6
7.4 7.1 7.2 7.7 7.7 7.9 8.2 8.1 8.0 8.4 8.5 8.9 8.4 7.9 8.1 8.4 8.3 7.8 8.3 8.5 8.6 8.6 7.9 7.7 7.8 8.0 7.8
6.3 6.7 7.3 7.2 7.7 7.9 8.0 8.0 8.0 8.3 8.4 8.7 8.3 8.1 7.8 7.8 8.8 9.5 8.4 8.3 8.2 8.2 8.3 8.0 7.9 7.1 7.8
Wind_Speed
9 10 13 13 12 15 17 15 15 18 21 24 18 24 26 26 27 27 25 25 25 25 28 31 26 29 31
11 9 11 12 12 13 10 16 16 18 23 22 17 25 25 26 25 26 25 26 28 27 26 29 29 31 30
10 9 10 9 10 11 11 12 15 20 21 17 19 26 26 25 24 24 26 29 27 26 25 27 29 29 32
9 9 9 10 9 10 10 9 11 15 17 17 22 24 24 23 20 21 27 33 24 23 23 23 23 27 27
9 9 9 9 10 9 10 9 10 10 10 10 11 11 14 18 16 23 27 26 24 26 26 28 26 26 28
10 11 12 10 10 10 10 9 11 9 11 12 9 11 10 14 20 27 26 20 24 25 27 26 28 26 26
13 12 13 12 11 11 11 12 12 11 12 12 11 11 10 15 23 24 20 21 27 26 26 25 26 26 25
11 11 11 11 11 12 13 15 12 10 10 12 12 11 11 12 23 20 17 27 24 27 26 27 26 25 25
19 22 22 22 19 10 10 10 11 11 9 10 9 10 11 11 11 18 25 22 26 26 28 26 24 24 17
14 16 16 14 18 12 10 9 9 10 6 8 10 9 8 9 7 11 10 22 24 28 26 23 23 9 10
11 10 10 10 8 8 10 8 9 10 11 9 9 11 8 11 10 10 10 11 12 13 20 21 19 18 9
9 9 9 8 8 8 10 10 12 13 13 11 8 10 10 12 12 10 10 10 10 11 10 13 22 20 19
9 9 8 8 9 9 9 14 12 13 15 15 9 10 9 11 11 11 12 11 10 8 10 11 10 10 11
9 9 8 7 7 7 8 8 8 9 12 16 12 10 9 10 10 11 10 9 11 10 10 10 10 9 9
8 8 8 8 7 7 8 8 8 9 9 8 8 9 8 12 10 10 11 10 9 10 10 10 9 8 8
8 8 9 8 8 8 8 8 9 9 9 8 8 8 9 9 16 10 9 9 9 10 11 11 11 8 7
8 8 8 8 11 9 8 8 9 9 8 8 8 8 9 11 8 13 8 8 10 11 9 9 10 9 8
Wind_Direction
303 314 314 317 320 321 320 318 316 321 322 327 329 332 331 328 327 324 321 321 325 329 327 330 319 290 248
301 306 308 312 315 317 319 318 319 316 320 320 320 329 328 326 326 328 328 324 321 321 324 322 323 323 278
301 307 309 313 315 318 316 316 316 320 316 313 319 324 326 325 326 331 334 325 317 316 318 318 314 317 325
297 301 303 305 307 309 313 311 321 314 306 310 316 317 318 323 323 327 327 336 323 321 312 315 324 327 318
292 297 297 307 310 311 305 320 305 301 308 314 311 311 314 316 314 327 323 323 336 336 334 331 328 327 324
294 295 300 306 304 310 313 302 309 300 316 307 307 307 306 306 317 319 319 317 328 327 326 328 323 324 319
289 290 299 301 312 299 297 300 301 308 307 301 308 301 305 305 313 315 315 322 323 323 320 321 320 315 314
286 289 286 289 287 291 300 297 293 295 301 295 303 300 305 307 304 307 310 321 319 321 318 318 316 311 311
283 284 286 289 290 296 287 290 293 295 305 285 301 310 305 295 295 305 314 313 316 317 316 315 313 316 305
294 295 294 291 290 280 284 282 289 296 289 308 308 306 303 293 301 306 306 310 312 315 313 311 315 310 318
291 294 293 288 287 288 290 289 286 282 287 294 293 295 280 294 294 299 301 307 311 308 309 312 310 317 311
291 290 293 293 288 285 289 287 283 281 289 284 279 282 287 289 292 303 302 304 307 305 307 304 310 311 308
285 288 288 288 293 288 272 271 262 271 276 279 274 282 273 280 289 293 301 308 301 301 310 302 306 310 311
287 291 293 280 271 275 279 282 289 289 277 277 273 274 281 277 280 287 295 287 299 301 301 302 306 303 297
287 288 287 288 284 286 282 285 279 283 286 287 294 284 274 276 278 280 289 297 299 297 302 299 295 295 300
290 285 286 286 283 279 274 274 278 283 285 288 293 291 290 266 242 264 277 289 297 300 296 296 298 298 299
280 278 282 277 285 282 279 278 278 279 278 280 277 279 286 285 295 261 277 283 298 296 289 286 292 298 300